Weather History for Pampa, TX

Change the Weather History Date:

Monday, February 10, 2014

  Actual Average Record
Temperature  
Mean Temperature 16 °F -  
Max Temperature 18 °F 50 °F 82 °F (1976)
Min Temperature 13 °F 23 °F -2 °F (2011)
Degree Days  
Heating Degree Days 50    
Moisture  
Dew Point 13 °F    
Average Humidity 90    
Maximum Humidity 91    
Minimum Humidity 88    
Precipitation  
Precipitation 0.00 in - - ()
Sea Level Pressure  
Sea Level Pressure 30.21 in    
Wind  
Wind Speed 0 mph (North)    
Max Wind Speed 0 mph    
Max Gust Speed -    
Visibility 5 miles    
Events Fog , Snow    
Averages and records for this station are not official NWS values.
T = Trace of Precipitation, MM = Missing Value Source: NWS Daily Summary

Daily Weather History Graph

Daily Weather History Graph

Search for Another Location

Airport:

Trip Planner

Search our weather history database for the weather conditions in past years. The results will help you decide how hot, cold, wet, or windy it might be!

Date:

Astronomy

Feb. 10, 2014 Rise Set
Actual Time 7:35 AM CST 6:21 PM CST
Civil Twilight 7:09 AM CST 6:47 PM CST
Nautical Twilight 6:39 AM CST 7:17 PM CST
Astronomical Twilight 6:09 AM CST 7:47 PM CST
Moon 2:54 PM CST (2/10) 4:27 AM CST (2/10)
Length of Visible Light 11h 37m
Length of Day
10h 45m
Waxing Gibbous, 85% of the Moon is Illuminated
Feb 10
Waxing Gibbous
Feb 14
Full
Feb 22
Last Quarter
Mar 1
New
Mar 8
First Quarter

Hourly Weather History & Observations

Time (CST) Temp. Dew Point Humidity Pressure Visibility Wind Dir Wind Speed Gust Speed Precip Events Conditions
12:15 AM 18.1 °F 15.8 °F 91% 30.21 in 0.8 mi Calm Calm - N/A   Overcast
12:35 AM 17.4 °F 14.9 °F 90% 30.21 in 0.5 mi Calm Calm - N/A Snow Light Snow
12:55 AM 16.7 °F 14.4 °F 91% 30.21 in 0.2 mi Calm Calm - N/A Snow Snow
1:15 AM 16.7 °F 14.2 °F 90% 30.21 in 0.5 mi Calm Calm - N/A Snow Light Snow
1:35 AM 16.5 °F 14.0 °F 90% 30.20 in 0.2 mi Calm Calm - N/A Snow Light Snow
1:55 AM 16.3 °F 13.8 °F 90% 30.21 in 0.5 mi Calm Calm - N/A Fog Light Freezing Fog
2:15 AM 16.2 °F 13.6 °F 90% 30.22 in 1.2 mi Calm Calm - N/A   Overcast
2:35 AM 15.8 °F 13.3 °F 90% 30.21 in 4.0 mi Calm Calm - N/A   Overcast
2:55 AM 15.6 °F 13.1 °F 90% 30.22 in 5.0 mi Calm Calm - N/A   Overcast
3:15 AM 15.8 °F 13.1 °F 89% 30.22 in 4.0 mi Calm Calm - N/A   Overcast
3:35 AM 15.4 °F 12.7 °F 89% 30.21 in 4.0 mi Calm Calm - N/A   Overcast
3:55 AM 15.3 °F 12.6 °F 89% 30.21 in 4.0 mi Calm Calm - N/A   Overcast
4:15 AM 15.3 °F 12.7 °F 90% 30.21 in 4.0 mi Calm Calm - N/A   Overcast
4:35 AM 15.1 °F 12.6 °F 90% 30.21 in 3.0 mi Calm Calm - N/A   Overcast
4:55 AM 14.9 °F 12.2 °F 89% 30.21 in 4.0 mi Calm Calm - N/A   Overcast
5:15 AM 14.9 °F 12.4 °F 90% 30.20 in 4.0 mi Calm Calm - N/A   Overcast
5:35 AM 14.9 °F 12.2 °F 89% 30.20 in 4.0 mi Calm Calm - N/A   Overcast
5:55 AM 14.7 °F 12.0 °F 89% 30.21 in 3.0 mi Calm Calm - N/A   Overcast
6:15 AM 14.7 °F 12.0 °F 89% 30.22 in 4.0 mi Calm Calm - N/A Snow Light Snow
6:35 AM 14.7 °F 12.0 °F 89% 30.21 in 4.0 mi Calm Calm - N/A   Overcast
6:55 AM 14.4 °F 11.7 °F 89% 30.22 in 4.0 mi Calm Calm - N/A   Overcast
7:15 AM 14.4 °F 11.5 °F 88% 30.22 in 4.0 mi Calm Calm - N/A   Overcast
7:35 AM 14.2 °F 11.3 °F 88% 30.23 in 4.0 mi Calm Calm - N/A   Overcast
7:55 AM 14.4 °F 11.7 °F 89% 30.23 in 2.0 mi Calm Calm - N/A   Overcast
8:15 AM 14.4 °F 11.5 °F 88% 30.23 in 2.0 mi Calm Calm - N/A   Overcast
8:35 AM 14.4 °F 11.7 °F 89% 30.23 in 4.0 mi Calm Calm - N/A   Overcast
8:55 AM 14.5 °F 11.8 °F 89% 30.23 in 4.0 mi Calm Calm - N/A   Overcast
9:15 AM 14.4 °F 11.5 °F 88% 30.23 in 3.0 mi Calm Calm - N/A   Overcast
9:35 AM 14.0 °F 11.1 °F 88% 30.24 in 2.0 mi Calm Calm - N/A   Overcast
9:55 AM 13.8 °F 11.1 °F 89% 30.24 in 2.5 mi Calm Calm - N/A Snow Light Snow
10:15 AM 14.0 °F 11.3 °F 89% 30.24 in 3.0 mi Calm Calm - N/A Snow Light Snow
10:35 AM 14.0 °F 11.3 °F 89% 30.25 in 4.0 mi Calm Calm - N/A Snow Light Snow
10:55 AM 14.9 °F 12.2 °F 89% 30.24 in 4.0 mi Calm Calm - N/A Snow Light Snow
11:15 AM 15.1 °F 12.4 °F 89% 30.24 in 3.0 mi Calm Calm - N/A Snow Light Snow
11:35 AM 15.6 °F 12.9 °F 89% 30.24 in 4.0 mi Calm Calm - N/A Snow Light Snow
11:55 AM 16.0 °F 13.3 °F 89% 30.23 in 5.0 mi Calm Calm - N/A Snow Light Snow
12:15 PM 16.2 °F 13.6 °F 90% 30.22 in 5.0 mi Calm Calm - N/A Snow Light Snow
12:35 PM 16.7 °F 14.2 °F 90% 30.21 in 5.0 mi Calm Calm - N/A Snow Light Snow
12:55 PM 16.5 °F 13.8 °F 89% 30.22 in 5.0 mi Calm Calm - N/A Snow Light Snow
1:15 PM 16.5 °F 14.0 °F 90% 30.20 in 3.0 mi Calm Calm - N/A Snow Light Snow
1:35 PM 17.1 °F 14.7 °F 91% 30.18 in 4.0 mi Calm Calm - N/A Snow Light Snow
1:55 PM 17.6 °F 14.9 °F 89% 30.16 in 5.0 mi Calm Calm - N/A Snow Light Snow
2:15 PM 17.2 °F 14.7 °F 90% 30.16 in 7.0 mi Calm Calm - N/A Snow Light Snow
2:35 PM 17.2 °F 14.7 °F 90% 30.16 in 10.0 mi Calm Calm - N/A Snow Light Snow
2:55 PM 17.4 °F 14.9 °F 90% 30.15 in 10.0 mi Calm Calm - N/A Snow Light Snow
3:15 PM 17.4 °F 14.7 °F 89% 30.14 in 10.0 mi Calm Calm - N/A Snow Light Snow
3:35 PM 17.1 °F 14.5 °F 90% 30.14 in 10.0 mi Calm Calm - N/A   Overcast
3:55 PM 17.2 °F 14.7 °F 90% 30.14 in 10.0 mi Calm Calm - N/A   Overcast
4:15 PM 17.4 °F 14.9 °F 90% 30.13 in 5.0 mi Calm Calm - N/A Snow Light Snow
4:35 PM 17.2 °F 14.7 °F 90% 30.13 in 5.0 mi Calm Calm - N/A Snow Light Snow
4:55 PM 17.2 °F 14.5 °F 89% 30.14 in 5.0 mi Calm Calm - N/A Snow Light Snow
5:15 PM 16.7 °F 14.2 °F 90% 30.14 in 5.0 mi Calm Calm - N/A Snow Light Snow
5:35 PM 17.1 °F 14.5 °F 90% 30.16 in 4.0 mi Calm Calm - N/A Snow Light Snow
5:55 PM 16.7 °F 14.4 °F 91% 30.17 in 5.0 mi Calm Calm - N/A Snow Light Snow
6:15 PM 16.9 °F 14.2 °F 89% 30.17 in 4.0 mi Calm Calm - N/A Snow Light Snow
6:35 PM 17.1 °F 14.5 °F 90% 30.19 in 5.0 mi Calm Calm - N/A Snow Light Snow
6:55 PM 17.2 °F 14.7 °F 90% 30.19 in 5.0 mi Calm Calm - N/A Snow Light Snow
7:15 PM 17.1 °F 14.5 °F 90% 30.21 in 5.0 mi Calm Calm - N/A Snow Light Snow
7:35 PM 17.1 °F 14.5 °F 90% 30.22 in 7.0 mi Calm Calm - N/A Snow Light Snow
7:55 PM 16.9 °F 14.4 °F 90% 30.22 in 5.0 mi Calm Calm - N/A Snow Light Snow
8:15 PM 16.7 °F 14.2 °F 90% 30.22 in 7.0 mi Calm Calm - N/A   Overcast
8:35 PM 16.9 °F 14.4 °F 90% 30.22 in 7.0 mi Calm Calm - N/A   Overcast
8:55 PM 16.7 °F 14.2 °F 90% 30.23 in 7.0 mi Calm Calm - N/A   Overcast
9:15 PM 16.7 °F 14.0 °F 89% 30.24 in 7.0 mi Calm Calm - N/A   Overcast
9:35 PM 16.5 °F 14.0 °F 90% 30.24 in 7.0 mi Calm Calm - N/A   Overcast
9:55 PM 16.5 °F 14.0 °F 90% 30.24 in 7.0 mi Calm Calm - N/A   Overcast
10:15 PM 16.5 °F 13.8 °F 89% 30.25 in 7.0 mi Calm Calm - N/A   Overcast
10:35 PM 16.3 °F 13.8 °F 90% 30.25 in 5.0 mi Calm Calm - N/A   Overcast
10:55 PM 16.2 °F 13.6 °F 90% 30.25 in 5.0 mi Calm Calm - N/A   Overcast
11:15 PM 16.2 °F 13.5 °F 89% 30.25 in 7.0 mi Calm Calm - N/A   Overcast
11:35 PM 15.8 °F 13.1 °F 89% 30.25 in 5.0 mi Calm Calm - N/A   Overcast
11:55 PM 15.8 °F 13.1 °F 89% 30.24 in 5.0 mi Calm Calm - N/A   Overcast